Location: Chacón
(10.5789°N, 66.9317°W)
Time: 04:59:22
(UTC+00:00)

Cosmos 962 Rocket - Pass Details

Date: 20 October 2025
Orbit: 950 x 998 km, 82.9° (Epoch: 17 November)

Event Time Altitude Azimuth Distance (km) Brightness Sun altitude
Rises 08:49:32 0° 345° (NNW) 3,682 7.3 -22.1°
Enters shadow 08:49:58 - 345° (NNW) 3,520 7.2 -22.0°
Exits shadow 08:51:40 - 341° (NNW) 2,898 6.7 -21.6°
Reaches altitude 10° 08:52:09 10° 340° (NNW) 2,727 6.6 -21.4°
Maximum altitude 08:58:04 46° 268° (W) 1,282 4.7 -20.0°
Drops below altitude 10° 09:03:55 10° 197° (SSW) 2,695 6.7 -18.6°
Sets 09:06:31 0° 191° (S) 3,635 7.5 -17.9°
